Terminal Aerodrome Forecast
Issued by NWS

Home | Current Version | Previous Version | Text Only | Print | Product List | Glossary On
Versions: 1 2 3 4 5 6 7 8 9 10 11 12 13 14 15 16 17 18 19 20 21 22 23 24 25 26 27 28 29 30 31 32 33 34 35 36 37
000
FTAK31 PANC 231448 AAA
TAFAEN
TAF AMD
PAEN 231448Z 2315/2412 20008KT P6SM VCSH SCT008 OVC050
     FM232100 23005KT P6SM VCSH SCT025 BKN045
     FM240300 19008KT P6SM SCT060 BKN080=

USA.gov is the U.S. government's official web portal to all federal, state and local government web resources and services.